This is the latest recevied weather packets stored in our database for station/object KD5UMO-1. If no packets are shown the sender has not sent any weather packets the latest 10 day(s).
| Time | Temp. | Humidity | Pressure | Rain* | Wind** | Luminosity | Snow |
|---|---|---|---|---|---|---|---|
| 1777564673 | 17.22° C | 80% | 1016.3 hPa | 0 mm | - | 74 W/m² | - |
| 1777564369 | 17.22° C | 81% | 1016.5 hPa | 0 mm | - | 58 W/m² | - |
| 1777564064 | 17.22° C | 80% | 1016.9 hPa | 0 mm | - | 46 W/m² | - |
| 1777562784 | 17.22° C | 80% | 1015.6 hPa | 0 mm | - | 108 W/m² | - |
| 1777562482 | 17.22° C | 80% | 1015.6 hPa | 0 mm | - | 108 W/m² | - |
| 1777562179 | 17.22° C | 81% | 1015.9 hPa | 0 mm | - | 123 W/m² | - |
| 1777561876 | 17.22° C | 81% | 1015.6 hPa | 0 mm | - | 136 W/m² | - |
| 1777561573 | 17.22° C | 82% | 1015.5 hPa | 0 mm | - | 156 W/m² | - |
| 1777561269 | 17.22° C | 82% | 1015.4 hPa | 0 mm | - | 254 W/m² | - |
| 1777560969 | 17.22° C | 84% | 1015.4 hPa | 0 mm | - | 158 W/m² | - |
| 1777560665 | 16.67° C | 85% | 1015.2 hPa | 0 mm | - | 178 W/m² | - |
| 1777560363 | 16.67° C | 86% | 1015.2 hPa | 0 mm | - | 155 W/m² | - |
| 1777560060 | 16.67° C | 87% | 1014.8 hPa | 0 mm | - | 92 W/m² | - |
| 1777559756 | 16.11° C | 87% | 1014.8 hPa | 0 mm | - | 69 W/m² | - |
| 1777559453 | 16.11° C | 87% | 1015.1 hPa | 0 mm | - | 75 W/m² | - |
| 1777559150 | 16.11° C | 87% | 1014.7 hPa | 0 mm | - | 76 W/m² | - |
| 1777558850 | 16.11° C | 87% | 1014.8 hPa | 0 mm | - | 74 W/m² | - |
| 1777558546 | 16.11° C | 87% | 1014.6 hPa | 0 mm | - | 106 W/m² | - |
| 1777558242 | 16.11° C | 88% | 1014.7 hPa | 0 mm | - | 126 W/m² | - |
| 1777557938 | 16.11° C | 88% | 1014.5 hPa | 0 mm | - | 154 W/m² | - |
| 1777557636 | 16.11° C | 88% | 1014.2 hPa | 0 mm | - | 142 W/m² | - |
| 1777557331 | 16.11° C | 88% | 1014.3 hPa | 0 mm | - | 139 W/m² | - |
| 1777557028 | 16.11° C | 88% | 1014.4 hPa | 0 mm | - | 176 W/m² | - |
| 1777556724 | 16.11° C | 89% | 1014.5 hPa | 0 mm | - | 173 W/m² | - |
| 1777556420 | 16.11° C | 89% | 1014.7 hPa | 0 mm | - | 135 W/m² | - |
* Rain latest hour (hover to see other rain measurements)
** Current wind speed in m/s (hover to see current wind gust speed)